Regional Weather Roundup
Issued by NWS

Home | Current Version | Previous Version | Graphics & Text | Print | Product List | Glossary On
Versions: 1 2 3 4 5 6 7 8 9 10 11 12 13 14 15 16 17 18 19 20 21 22 23 24 25 26 27 28 29 30 31 32 33 34 35 36 37 38 39 40 41 42 43 44 45 46 47 48 49 50
000
ASUS43 KMPX 260510
RWRMN
WEATHER ROUNDUP FOR MINNESOTA
NATIONAL WEATHER SERVICE TWIN CITIES/CHANHASSEN MN
1200 AM CDT SAT MAY 26 2018


NOTE: "FAIR" INDICATES FEW OR NO CLOUDS BELOW 12,000 FEET WITH NO
SIGNIFICANT WEATHER AND/OR OBSTRUCTIONS TO VISIBILITY. N/A MEANS
CURRENT SKY AND/OR WEATHER CONDITIONS ARE NOT AVAILABLE.

MNZ060>063-068>070-260600-
   Twin Cities Metro

CITY           SKY/WX    TMP DP  RH WIND       PRES   REMARKS
TWIN CITIES    FAIR      72  61  68 SW6       29.71S
ST PAUL        FAIR      69  60  73 SE3       29.70S
CRYSTAL        FAIR      70  59  68 S5        29.69S
BLAINE         FAIR      70  61  73 S6        29.70S
LAKEVILLE      FAIR      64  61  88 S3        29.72F
EDEN PRAIRIE   FAIR      68  60  75 S5        29.70S
SOUTH ST PAUL  FAIR      70  58  66 S3        29.71S
LAKE ELMO      FAIR      66  63  88 CALM      29.72S
$$
MNZ001>005-007-008-013>017-022>024-027-028-260600-
   Northwest Minnesota

CITY           SKY/WX    TMP DP  RH WIND       PRES   REMARKS
BEMIDJI        FAIR      66  52  61 W6        29.63S
HALLOCK        FAIR      66  55  68 CALM      29.59R
ROSEAU         FAIR      64  57  77 S7        29.58S
WARROAD        FAIR      64  61  88 CALM      29.59R
THIEF RVR FALL FAIR      67  57  70 W6        29.62R
CROOKSTON      FAIR      68  55  64 N3        29.61R
FOSSTON        FAIR      66  54  63 S7        29.63R
DETROIT LAKES  FAIR      70  55  60 CALM      29.66R
MOORHEAD       FAIR      70  52  52 W9        29.62S
PARK RAPIDS    FAIR      69  56  62 S3        29.64S
MAHNOMEN       FAIR      67  53  61 SW8       29.63R
$$
MNZ006-009>011-018-025>026-260600-
   North Central Minnesota

CITY           SKY/WX    TMP DP  RH WIND       PRES   REMARKS
BAUDETTE         N/A     64  57  78 MISG      29.59R
INTL FALLS     MOCLDY    62  60  93 CALM      29.60S
WASKISH        FAIR      66  57  72 CALM      29.61R
BIG FORK       FAIR      66  57  72 CALM      29.64R
LONGVILLE      FAIR      61  57  88 CALM      29.64S
GRAND RAPIDS   FAIR      63  56  78 S3        29.65F
CRANE LAKE     MOCLDY    61  61 100 CALM      29.63F
ORR            FAIR      64  55  72 CALM      29.59F
COOK           FAIR      64  57  77 CALM      29.63F
WALKER         FAIR      63  54  72 CALM      29.63S
$$
MNZ012-019>021-037-260600-
   Northeast Minnesota

CITY           SKY/WX    TMP DP  RH WIND       PRES   REMARKS
DULUTH         FAIR      69  60  73 S3        29.65F
ELY            FAIR      61  55  82 CALM      29.63F
HIBBING        FAIR      58  55  90 CALM      29.63F
EVELETH        FAIR      59  57  94 CALM      29.65S
DULUTH HARBOR  FAIR      68  64  88 SW3       29.63S
TWO HARBORS    FAIR      63  57  82 CALM      29.62S
SILVER BAY     FAIR      61  59  94 CALM      29.62S
GRAND MARAIS     N/A     48  47  96 CALM      29.61S
G MARAIS ARPRT FAIR      59  54  82 CALM      29.67R
$$
MNZ029>031-032-039>041-046>048-054>057-064-260600-
   West Central Minnesota

CITY           SKY/WX    TMP DP  RH WIND       PRES   REMARKS
FERGUS FALLS   FAIR      72  54  53 S6        29.60S
MORRIS         CLEAR     72  54  53 W6        29.67S
ALEXANDRIA     FAIR      70  58  65 SW8       29.69S
ELBOW LAKE     FAIR      67  50  53 W6        29.67S
WADENA         MOCLDY    68  55  64 S5        29.65S
GLENWOOD       FAIR      68  59  73 S6        29.67S
APPLETON       CLEAR     73  57  56 SW6       29.68R
BENSON         CLEAR     70  59  68 SW8       29.70R
ORTONVILLE     CLEAR     73  54  49 W7        29.69R
MADISON        CLEAR     72  57  60 SW3       29.70R
WILLMAR        FAIR      70  57  64 CALM      29.72S
$$
MNZ033>034-036-042>043-049>051-058-059-260600-
   Central Minnesota

CITY           SKY/WX    TMP DP  RH WIND       PRES   REMARKS
ST CLOUD       FAIR      69  58  67 MISG      29.68S
SAUK CENTRE    FAIR      69  56  63 S5        29.69R
PAYNESVILLE    FAIR      70  62  75 SW3       29.70S
AITKIN         FAIR      66  57  72 SW3       29.64S
PINE RIVER     FAIR      61  54  77 CALM      29.69S
BRAINERD       FAIR      67  57  70 S3        29.66R
STAPLES        MOCLDY    68  55  64 S5        29.66S
LONG PRAIRIE   FAIR      64  59  82 S6        29.68S
LITTLE FALLS   FAIR      68  59  73 SE3       29.68S
LITCHFIELD     FAIR      70  61  73 CALM      29.71S
BUFFALO        FAIR      67  58  72 S3        29.72R
MAPLE LAKE     FAIR      68  60  77 S3        29.71S
HUTCHINSON     FAIR      67  61  79 CALM      29.72S
$$
MNZ037-044-045-052-053-260600-
   East Central Minnesota

CITY           SKY/WX    TMP DP  RH WIND       PRES   REMARKS
PRINCETON      FAIR      68  61  77 S5        29.69S
MORA           FAIR      68  57  68 S3        29.70S
CAMBRIDGE      FAIR      72  57  60 S6        29.69S
RUSH CITY      FAIR      67  62  82 S3        29.69S
MOOSE LAKE     MOCLDY    64  59  82 CALM      29.65R
HINCKLEY       FAIR      68  61  77 S3        29.68S
CLOQUET        FAIR      72  55  56 SW6       29.65S
MCGREGOR       FAIR      70  59  68 CALM      29.65S
$$
MNZ071>073-080-081-089-090-097-098-260600-
   Southwest Minnesota

CITY           SKY/WX    TMP DP  RH WIND       PRES   REMARKS
MONTEVIDEO     CLEAR     73  59  60 W8        29.69S
CANBY          CLEAR     72  55  54 SW5       29.72S
MARSHALL       CLEAR     71  60  68 SW10      29.72S
REDWOOD FALLS  CLEAR     67  62  84 S8        29.70S
OLIVIA         CLEAR     70  63  78 S3        29.71R
PIPESTONE      CLEAR     72  61  68 W5        29.76S
WINDOM         CLEAR     70  50  49 CALM      29.75S
WORTHINGTON    CLEAR     67  59  75 SW7       29.77S
JACKSON        CLEAR     66  59  77 S3        29.76F
TRACY          CLEAR     71  61  69 SW7       29.73S
SLAYTON        RAIN      70  57  64 SW8       29.77S
$$
MNZ065>067-074>077-082>085-091>093-260600-
   South Central Minnesota

CITY           SKY/WX    TMP DP  RH WIND       PRES   REMARKS
MANKATO        FAIR      67  60  78 S9        29.74S
NEW ULM        CLEAR     64  61  88 S8        29.72S
ST JAMES       CLEAR     70  59  68 S7        29.75S
FAIRMONT       CLEAR     68  61  78 S7        29.75F
GLENCOE        FAIR      68  61  77 S5        29.72S
FARIBAULT      FAIR      66  61  82 CALM      29.74S
OWATONNA       FAIR      66  61  82 SE10      29.75S
WASECA         FAIR      63  59  88 SE8       29.76S
ALBERT LEA     FAIR      66  61  82 S7        29.76F
$$
MNZ078>079-086>088-094>096-260600-
   Southeast Minnesota

CITY           SKY/WX    TMP DP  RH WIND       PRES   REMARKS
ROCHESTER      FAIR      65  63  93 S10       29.75F
RED WING       FAIR      68  61  77 SW5       29.71S
STANTON        FAIR      68  60  76 S8        29.71F
DODGE CENTER   FAIR      64  61  88 S8        29.75F
WINONA         FAIR      63  61  94 SW7       29.71F
AUSTIN         FAIR      66  61  82 SE5       29.77S
PRESTON        FAIR      61  58  87 S12       29.77F
$$
ABBREVIATIONS USED IN REMARKS
   TC - TEMPERATURES IN CELSIUS
  WCI - WIND CHILL INDEX
   HX - HEAT INDEX
  VSB - VISIBILITY
$$




USA.gov is the U.S. government's official web portal to all federal, state and local government web resources and services.